Weather Service Report


376 
ASUS46 KPQR 240410
RWROR 

OREGON REGIONAL WEATHER ROUNDUP
NATIONAL WEATHER SERVICE PORTLAND OR
900 PM PDT THU MAR 23 2017

NOTE: "FAIR" INDICATES FEW OR NO CLOUDS BELOW 12,000 FEET WITH
NO SIGNIFICANT WEATHER AND/OR OBSTRUCTIONS TO VISIBILITY.

ORZ001>013-240500-
NORTHWEST OREGON

  
CITY           SKY/WX    TMP DP  RH WIND       PRES   REMARKS
ASTORIA        LGT RAIN  46  43  89 E8        29.82F                  
NEWPORT        LGT RAIN  46  45  93 SE8       29.88S                  
PORTLAND       LGT RAIN  48  45  89 S6        29.93F                  
VANCOUVER WA   LGT RAIN  49  47  93 CALM      29.92F                  
SCAPPOOSE      LGT RAIN  47  45  93 SE5       29.92S                  
HILLSBORO      LGT RAIN  47  45  93 SE6       29.91F                  
AURORA         LGT RAIN  48  45  89 CALM      29.91F                  
MCMINNVILLE    LGT RAIN  48  45  89 E5        29.91F                  
SALEM          LGT RAIN  48  45  89 S5        29.88F                  
CORVALLIS        N/A     48  45  87 CALM      29.89F                  
EUGENE         LGT RAIN  49  46  90 S8        29.89F                  
$$

ORZ021-028-240500-
SOUTHWEST OREGON

  
CITY           SKY/WX    TMP DP  RH WIND       PRES   REMARKS
NORTH BEND     CLOUDY    52  43  71 S14G24    29.87S                  
BROOKINGS      LGT RAIN  48  45  89 SE9       29.96F                  
ROSEBURG       LGT RAIN  50  44  80 S5        29.92F                  
SEXTON SUMMIT  CLOUDY    36  36 100 SE17G26   29.91F FOG     WCI  26  
MEDFORD        LGT RAIN  50  43  77 CALM      29.98R                  
$$

ORZ014>016-041-240500-
COLUMBIA GORGE

  
CITY           SKY/WX    TMP DP  RH WIND       PRES   REMARKS
TROUTDALE      LGT RAIN  50  46  86 E7        29.93F                  
THE DALLES     CLOUDY    52  39  61 CALM      29.94S                  
$$

ORZ029>031-041-044-049-050-061>064-502-503-505>511-240500-
EASTERN OREGON

  
CITY           SKY/WX    TMP DP  RH WIND       PRES   REMARKS
REDMOND        CLOUDY    52  22  30 SW14      29.92R                  
BEND           CLOUDY    48  28  46 SW20G26   29.93R                  
PRINEVILLE     CLOUDY    52  25  35 S6        29.92R                  
KLAMATH FALLS  CLOUDY    41  32  70 S18       30.03S                  
LAKEVIEW       CLOUDY    41  25  52 SW22G28   30.07R                  
HERMISTON      CLOUDY    49  38  65 E6        29.92F                  
PENDLETON      MOCLDY    46  35  65 NE15      29.92F                  
JOHN DAY       PTCLDY    47  28  46 CALM      29.96R                  
MEACHAM        MOCLDY    34  27  75 CALM      29.95F                  
LA GRANDE      PTCLDY    39  30  70 E3        29.97S                  
BAKER CITY     CLEAR     41  28  60 SE7       29.99R                  
BURNS          MOCLDY    43  32  65 S8        29.99R                  
ROME             N/A     45  29  53 SE10      30.01R                  
ONTARIO        CLEAR     45  33  63 VRB3      30.04R                  
$$
  

Return to Home page


Western Regional Climate Center, wrcc@dri.edu